This demonstration page uses our WeatherBlox Daily Observations layout. Learn more.

Left ArrowRight Arrow

Hourly Observations for August 6, 2019

Temp ( °F °C ) Dew Point ( °F °C ) Humidity (%) Winds ( mph kmh ) Pressure ( in mb ) Visibility ( mi km ) Precip ( " mm )
12:53 am 00:53 Clear 83 28.3 51 10.6 33 33 E 9 15 29.80 1009 10 16 0.00 0.00
1:53 am 01:53 Clear 82 27.8 52 11.1 35 35 E 7 11 29.80 1009 10 16 0.00 0.00
2:53 am 02:53 Clear 82 27.8 56 13.3 41 41 ESE 9 15 29.80 1009 10 16 0.00 0.00
3:53 am 03:53 Clear 80 26.7 56 13.3 44 44 SSE 8 13 29.80 1009 10 16 0.00 0.00
4:53 am 04:53 Clear 80 26.7 58 14.4 47 47 SE 10 17 29.81 1010 10 16 0.00 0.00
5:53 am 05:53 Clear 80 26.7 60 15.6 51 51 SE 12 19 29.81 1010 10 16 0.00 0.00
6:53 am 06:53 Clear 78 25.6 60 15.6 54 54 SE 13 20 29.82 1010 10 16 0.00 0.00
7:53 am 07:53 Sunny 79 26.1 61 16.1 54 54 ESE 8 13 29.84 1011 10 16 0.00 0.00
8:53 am 08:53 Sunny 82 27.8 62 16.7 51 51 SE 13 20 29.85 1011 10 16 0.00 0.00
9:53 am 09:53 Sunny 87 30.6 62 16.7 43 43 ESE 10 17 29.86 1011 10 16 0.00 0.00
10:53 am 10:53 Partly Cloudy 91 32.8 61 16.1 37 37 ESE 12 19 29.86 1011 10 16 0.00 0.00
11:53 am 11:53 Sunny 95 35 59 15 30 30 VRB 6 9 29.87 1011 10 16 0.00 0.00
12:53 pm 12:53 Mostly Sunny 97 36.1 54 12.2 24 24 Calm 29.85 1011 10 16 0.00 0.00
1:53 pm 13:53 Sunny 99 37.2 52 11.1 21 21 VRB 5 7 29.83 1010 10 16 0.00 0.00
2:53 pm 14:53 Sunny 102 38.9 50 10 17 17 E 9 15 29.80 1009 10 16 0.00 0.00
3:53 pm 15:53 Partly Cloudy 103 39.4 51 10.6 18 18 VRB 3 6 29.77 1008 10 16 0.00 0.00
4:53 pm 16:53 Sunny 102 38.9 52 11.1 19 19 SE 8 13 29.75 1008 10 16 0.00 0.00
5:53 pm 17:53 Partly Cloudy 102 38.9 50 10 17 17 E 5 7 29.74 1007 10 16 0.00 0.00
6:53 pm 18:53 Partly Cloudy 101 38.3 50 10 18 18 SSE 7 11 29.73 1007 10 16 0.00 0.00
7:53 pm 19:53 Mostly Sunny 100 37.8 51 10.6 19 19 E 9 15 29.73 1007 10 16 0.00 0.00
8:53 pm 20:53 Clear 97 36.1 51 10.6 21 21 ESE 8 13 29.75 1007 10 16 0.00 0.00
9:53 pm 21:53 Clear 93 33.9 51 10.6 24 24 ESE 8 13 29.76 1008 10 16 0.00 0.00
10:53 pm 22:53 Clear 91 32.8 58 14.4 33 33 SE 13 20 29.79 1009 10 16 0.00 0.00
11:53 pm 23:53 Clear 89 31.7 58 14.4 35 35 SE 12 19 29.80 1009 10 16 0.00 0.00

Powered by AerisWeather